TimeMST,TemperatureF,Dew PointF,Humidity,Sea Level PressureIn,VisibilityMPH,Wind Direction,Wind SpeedMPH,Gust SpeedMPH,PrecipitationIn,Events,Conditions,WindDirDegrees,DateUTC
12:55 AM,45.0,37.0,74,30.07,10.0,NW,8.1,-,N/A,,Mostly Cloudy,320,2012-11-06 07:55:00
1:55 AM,43.0,37.0,80,30.09,10.0,NW,15.0,-,N/A,,Clear,310,2012-11-06 08:55:00
2:55 AM,41.0,33.1,73,30.09,10.0,WNW,16.1,-,N/A,,Clear,300,2012-11-06 09:55:00
3:55 AM,39.0,30.9,73,30.11,10.0,WNW,15.0,-,N/A,,Clear,300,2012-11-06 10:55:00
4:55 AM,39.0,32.0,76,30.15,10.0,WNW,13.8,-,N/A,,Clear,300,2012-11-06 11:55:00
5:55 AM,37.9,30.9,76,30.17,10.0,WNW,15.0,-,N/A,,Clear,300,2012-11-06 12:55:00
6:55 AM,37.0,30.9,79,30.19,10.0,WNW,15.0,-,N/A,,Clear,300,2012-11-06 13:55:00
7:55 AM,42.1,32.0,67,30.20,10.0,WNW,17.3,-,N/A,,Clear,300,2012-11-06 14:55:00
8:55 AM,46.9,30.9,54,30.19,10.0,WNW,19.6,27.6,N/A,,Clear,300,2012-11-06 15:55:00
9:55 AM,51.1,28.0,41,30.18,10.0,WNW,19.6,27.6,N/A,,Clear,300,2012-11-06 16:55:00
10:55 AM,55.0,24.1,30,30.16,10.0,NW,19.6,32.2,N/A,,Clear,320,2012-11-06 17:55:00
11:55 AM,57.0,26.1,30,30.14,10.0,NW,19.6,31.1,N/A,,Clear,310,2012-11-06 18:55:00
12:55 PM,57.9,26.1,30,30.12,10.0,NW,20.7,27.6,N/A,,Clear,310,2012-11-06 19:55:00
1:55 PM,57.9,24.1,27,30.12,10.0,NW,25.3,33.4,N/A,,Clear,320,2012-11-06 20:55:00
2:55 PM,57.0,24.1,28,30.13,10.0,NW,21.9,29.9,N/A,,Clear,320,2012-11-06 21:55:00
3:55 PM,53.1,24.1,32,30.14,10.0,NNW,11.5,-,N/A,,Clear,330,2012-11-06 22:55:00
4:55 PM,44.1,24.1,45,30.15,10.0,NNW,9.2,-,N/A,,Clear,330,2012-11-06 23:55:00
5:55 PM,39.9,24.1,53,30.17,10.0,NW,6.9,-,N/A,,Clear,310,2012-11-07 00:55:00
6:55 PM,35.1,24.1,64,30.17,10.0,Calm,Calm,-,N/A,,Clear,0,2012-11-07 01:55:00
7:55 PM,35.1,24.1,64,30.16,10.0,West,6.9,-,N/A,,Overcast,270,2012-11-07 02:55:00
8:55 PM,33.1,23.0,66,30.16,10.0,Calm,Calm,-,N/A,,Clear,0,2012-11-07 03:55:00
9:55 PM,28.9,23.0,78,30.16,10.0,West,5.8,-,N/A,,Clear,270,2012-11-07 04:55:00
10:55 PM,30.0,23.0,75,30.14,10.0,West,5.8,-,N/A,,Clear,270,2012-11-07 05:55:00
11:55 PM,27.0,21.9,81,30.15,10.0,Calm,Calm,-,N/A,,Clear,0,2012-11-07 06:55:00